VK3XEM-13 Weather Reports


time (UTC)temp
C
wind
direction
speed
KPH
gust
KPH
rain 1hr
cm
rain 24hr
cm
rain mn
cm
humidity
%
barometer
mb
20260510033214 15 44 1.6 4.8 0.00 0.00 0.05 65 1027.6
20260510031714 15 300 3.2 3.2 0.00 0.00 0.05 65 1028.0
20260510030214 15 17 0.0 3.2 0.00 0.00 0.05 67 1028.0
20260510024714 15 342 1.6 6.4 0.00 0.00 0.05 67 1028.3
20260510023214 15 9 0.0 3.2 0.00 0.00 0.05 68 1028.6
20260510021714 15 347 0.0 3.2 0.00 0.00 0.05 66 1028.6
20260510020215 15 7 3.2 3.2 0.00 0.00 0.05 66 1028.6
20260510014714 15 11 3.2 6.4 0.00 0.00 0.05 66 1029.0
20260510013214 15 323 3.2 4.8 0.00 0.00 0.05 67 1029.3
20260510011714 15 342 3.2 11.3 0.00 0.00 0.05 67 1029.3
20260510010214 15 20 1.6 6.4 0.00 0.00 0.05 68 1029.3
20260510004714 14 318 1.6 4.8 0.00 0.00 0.05 69 1029.3
20260510003214 14 52 1.6 3.2 0.00 0.00 0.05 71 1029.3
20260510001714 14 58 1.6 3.2 0.00 0.00 0.05 71 1029.3
20260510000214 14 49 0.0 1.6 0.00 0.00 0.05 75 1029.3
20260509234714 13 2 0.0 0.0 0.00 0.00 0.05 77 1029.3
20260509233214 13 0 1.6 1.6 0.00 0.00 0.05 79 1029.3
20260509231714 13 329 0.0 0.0 0.00 0.00 0.05 81 1029.3
20260509230214 13 343 0.0 1.6 0.00 0.00 0.05 83 1029.3
20260509224715 13 28 0.0 0.0 0.00 0.00 0.05 87 1029.0
20260509223214 12 29 0.0 0.0 0.00 0.00 0.05 89 1028.6
20260509221715 12 29 0.0 0.0 0.00 0.00 0.05 91 1028.6
20260509220214 12 28 0.0 0.0 0.00 0.00 0.05 92 1028.6
20260509214714 12 29 0.0 0.0 0.00 0.00 0.05 92 1028.3
20260509213215 12 13 0.0 0.0 0.00 0.00 0.05 92 1028.0
20260509211715 12 14 0.0 0.0 0.00 0.00 0.05 92 1028.3
20260509210214 12 14 0.0 0.0 0.00 0.00 0.05 91 1028.0
20260509204714 12 14 0.0 0.0 0.00 0.00 0.05 91 1027.6
20260509203214 12 350 0.0 0.0 0.00 0.00 0.05 90 1027.6
20260509201714 12 350 0.0 0.0 0.00 0.00 0.05 90 1027.6
20260509200214 12 0 0.0 1.6 0.00 0.00 0.05 91 1027.3
20260509194715 12 11 1.6 3.2 0.00 0.00 0.05 93 1027.3
20260509193215 12 13 0.0 3.2 0.00 0.00 0.05 94 1026.9
20260509191715 12 339 3.2 3.2 0.00 0.00 0.05 94 1026.6
20260509190214 12 350 0.0 1.6 0.00 0.00 0.05 95 1026.6
20260509184714 12 334 3.2 3.2 0.00 0.00 0.05 95 1026.6
20260509183214 12 47 0.0 1.6 0.00 0.00 0.05 95 1026.6
20260509181714 12 46 0.0 0.0 0.00 0.00 0.05 95 1026.3
20260509180214 12 46 0.0 1.6 0.03 0.00 0.05 95 1026.3
20260509174715 12 47 0.0 0.0 0.03 0.00 0.05 95 1026.3
20260509173214 12 49 0.0 0.0 0.03 0.00 0.05 95 1026.3
20260509171714 12 50 0.0 0.0 0.03 0.00 0.05 95 1026.3
20260509170215 12 56 0.0 0.0 0.00 0.00 0.03 94 1026.3
20260509164714 12 5 0.0 1.6 0.00 0.00 0.03 94 1026.6
20260509163214 12 13 0.0 1.6 0.03 0.00 0.03 94 1026.3
20260509161725 12 14 0.0 0.0 0.03 0.00 0.03 94 1026.6
20260509160214 12 345 0.0 0.0 0.03 0.00 0.03 94 1026.6
20260509154714 12 355 0.0 0.0 0.03 0.00 0.03 94 1026.6
20260509153214 12 356 0.0 1.6 0.00 0.00 0.00 94 1026.6
20260509151715 12 2 1.6 1.6 0.00 0.00 0.00 94 1026.6
20260509150214 12 355 0.0 0.0 0.00 0.00 0.00 94 1026.6
20260509144714 12 355 0.0 0.0 0.00 0.00 0.00 93 1026.6
20260509143214 12 357 0.0 0.0 0.00 0.00 0.00 93 1026.9
20260509141714 12 347 0.0 0.0 0.00 0.00 0.00 93 1026.9
20260509140215 12 20 1.6 1.6 0.00 0.00 0.00 92 1026.6
20260509134715 12 307 0.0 0.0 0.00 0.00 0.15 92 1026.6
20260509133214 12 329 1.6 1.6 0.00 0.00 0.15 91 1026.9
20260509131714 13 13 0.0 0.0 0.00 0.00 0.15 90 1026.9
20260509130215 13 10 1.6 1.6 0.00 0.00 0.15 89 1026.9
20260509124715 13 60 1.6 1.6 0.00 0.00 0.15 88 1026.6
20260509123213 13 25 0.0 0.0 0.00 0.00 0.15 88 1026.9
20260509121715 13 12 0.0 0.0 0.00 0.00 0.15 88 1026.9
20260509120214 13 13 0.0 0.0 0.00 0.00 0.15 88 1026.9
20260509114714 13 14 0.0 0.0 0.00 0.00 0.15 88 1026.6
20260509113215 13 16 1.6 1.6 0.00 0.00 0.15 88 1026.6
20260509111714 13 21 0.0 1.6 0.00 0.00 0.15 88 1026.6
20260509110215 13 19 3.2 3.2 0.00 0.00 0.15 88 1026.6
20260509104714 13 37 3.2 4.8 0.00 0.00 0.15 88 1026.3
20260509103214 13 17 1.6 3.2 0.00 0.00 0.15 89 1026.3
20260509101714 13 63 0.0 3.2 0.00 0.00 0.15 88 1026.3
20260509100214 13 17 0.0 1.6 0.00 0.00 0.15 88 1026.3
20260509094714 13 54 0.0 1.6 0.00 0.00 0.15 88 1026.3
20260509093215 13 60 0.0 1.6 0.00 0.00 0.15 88 1026.3
20260509091715 13 60 0.0 1.6 0.00 0.00 0.15 88 1026.3
20260509090214 13 60 0.0 3.2 0.00 0.00 0.15 87 1026.3
20260509084714 13 1 1.6 1.6 0.00 0.00 0.15 87 1025.9
20260509083214 13 50 1.6 3.2 0.00 0.00 0.15 86 1025.6
20260509081715 14 42 0.0 4.8 0.00 0.00 0.15 85 1025.6
20260509080214 14 23 0.0 3.2 0.00 0.00 0.15 84 1025.6
20260509074714 14 6 1.6 3.2 0.00 0.00 0.15 84 1025.6
20260509073214 14 36 1.6 3.2 0.00 0.00 0.15 84 1025.3
20260509071714 14 80 1.6 6.4 0.00 0.00 0.15 83 1024.9
20260509070214 15 6 1.6 4.8 0.00 0.00 0.15 81 1024.9
20260509064715 15 23 4.8 4.8 0.00 0.00 0.15 81 1024.9
20260509063215 15 350 1.6 6.4 0.00 0.00 0.15 80 1024.9
20260509061714 15 27 1.6 4.8 0.00 0.00 0.15 79 1024.6
20260509060214 15 37 3.2 6.4 0.00 0.00 0.15 78 1024.6
20260509054714 16 51 1.6 4.8 0.00 0.00 0.15 76 1024.6
20260509053214 16 78 4.8 4.8 0.00 0.00 0.15 75 1024.6
20260509051714 15 50 1.6 1.6 0.00 0.00 0.15 78 1024.6
20260509050214 15 76 3.2 3.2 0.00 0.00 0.15 78 1024.6
20260509044714 15 52 4.8 4.8 0.00 0.00 0.15 78 1024.6
20260509043215 15 38 1.6 4.8 0.00 0.00 0.15 78 1024.6
20260509041714 15 354 3.2 4.8 0.00 0.00 0.15 77 1024.6
20260509040214 15 5 1.6 3.2 0.00 0.00 0.15 80 1024.6
20260509034714 15 69 3.2 6.4 0.00 0.00 0.15 79 1024.6